Theta_e
346 352 355 357 362 361 363 361 354 354 353 349 350 353 353 353 355 358 349 348 348 348 341 342 343 342 342 342 343 341 336 336 337 338 337 338 334 332 338 340 338 336 335 338 341 341 339 337 336
354 355 356 359 365 364 364 357 359 354 350 350 353 353 353 352 350 350 351 347 347 347 345 341 343 341 342 342 340 336 340 341 342 342 341 338 339 338 339 341 340 340 340 340 342 341 339 338 337
355 357 359 363 361 359 364 357 355 352 351 351 354 352 351 351 350 350 348 346 347 347 348 337 339 338 339 337 335 340 340 342 342 341 342 343 340 338 340 340 340 341 341 342 336 334 338 338 338
358 358 359 362 358 355 357 355 351 351 351 351 352 352 351 350 350 349 346 345 344 348 344 336 335 335 336 337 336 340 336 344 340 342 343 344 341 339 340 339 341 341 343 336 336 336 337 338 337
357 358 361 359 354 351 350 351 350 352 350 351 351 353 351 350 349 349 347 345 345 350 338 334 334 330 340 334 339 336 342 340 342 342 343 343 341 339 338 339 339 341 341 343 340 339 338 339 335
358 355 363 354 353 352 351 350 351 351 350 351 352 351 351 349 348 346 348 344 346 350 345 332 328 334 339 343 334 341 342 342 342 342 341 341 340 340 340 339 340 337 341 341 339 339 334 335 334
357 361 362 350 353 352 351 347 348 350 350 352 352 355 348 350 345 342 344 343 347 344 346 335 328 333 341 342 332 335 338 342 342 341 341 340 340 340 341 341 340 337 340 339 341 341 338 334 333
349 356 355 348 350 352 349 348 346 348 349 352 353 353 349 348 342 341 343 343 341 344 346 346 330 329 329 329 332 338 337 339 340 341 341 340 339 341 342 342 342 343 342 342 341 341 339 334 332
345 358 358 349 349 349 348 347 349 348 347 348 351 353 349 346 341 342 341 342 340 342 344 349 340 343 345 341 331 329 336 340 339 338 341 346 344 343 340 339 335 340 340 341 341 340 340 335 334
343 356 350 348 347 348 349 349 348 352 349 350 352 352 350 344 338 339 342 340 341 341 342 348 346 346 345 348 337 344 343 347 347 345 348 348 350 349 347 343 338 333 338 338 338 339 343 340 337
349 351 348 349 349 348 349 350 351 352 352 350 351 351 349 341 337 339 340 339 342 341 342 346 347 340 347 349 344 350 350 347 345 344 346 349 350 349 347 340 339 338 337 338 338 339 347 336 338
351 346 347 348 349 348 348 346 350 352 351 351 351 350 349 342 337 336 335 340 343 343 339 342 346 347 349 347 348 349 348 348 345 346 345 348 347 349 348 344 342 346 344 340 349 348 339 342 340
349 348 346 347 348 348 348 347 348 348 347 351 350 350 348 343 338 340 340 341 342 340 341 341 343 347 349 347 345 347 346 347 347 347 345 343 343 347 345 345 338 340 345 347 348 347 347 347 347
344 345 347 348 348 349 350 351 353 347 349 351 350 349 347 344 343 338 340 339 337 339 337 341 344 350 349 349 346 347 346 347 347 348 346 348 347 349 349 341 341 336 338 348 348 344 348 345 343
344 345 346 347 349 350 351 354 352 349 349 349 349 348 348 347 341 337 341 340 342 342 337 341 342 343 345 346 344 347 348 345 347 345 347 351 349 346 346 344 343 338 337 343 349 346 348 346 345
346 342 344 344 349 351 353 359 352 348 349 349 349 348 347 347 343 340 340 338 340 344 343 342 341 344 341 343 338 347 347 348 348 349 348 350 347 346 345 345 344 343 341 339 346 344 349 347 348
342 338 343 345 348 350 353 357 352 348 348 349 349 348 346 346 345 344 338 334 339 342 341 340 343 344 346 337 331 340 348 350 351 351 349 350 348 347 346 346 344 342 344 345 348 347 346 347 346
335 335 336 345 345 347 352 356 352 351 348 349 349 348 347 346 345 342 337 335 341 337 337 328 343 345 343 337 346 349 350 350 350 348 350 350 351 351 348 346 346 345 345 345 347 349 344 347 347
334 333 335 336 337 345 350 355 353 351 350 350 350 349 349 350 348 345 339 337 341 339 328 326 340 341 345 346 349 348 351 352 349 352 351 352 351 348 348 348 347 347 346 341 346 348 338 347 348
333 333 337 339 335 340 347 354 353 351 352 350 350 350 350 350 350 349 347 345 344 334 329 328 331 343 346 349 350 349 348 350 351 350 349 353 350 352 348 348 351 346 347 347 345 348 340 346 347
333 332 331 333 340 341 348 354 354 351 351 351 349 350 350 349 350 350 349 349 346 337 330 331 341 340 344 347 348 350 349 351 353 351 350 351 349 350 346 349 349 348 345 346 345 345 346 344 347
331 332 331 331 332 335 346 359 346 353 352 351 349 349 348 348 348 349 350 349 346 341 338 340 341 338 342 345 352 351 352 349 348 347 349 350 350 349 346 348 346 348 347 344 346 347 347 345 346
330 331 331 332 333 335 344 351 354 351 354 351 350 348 348 348 347 347 347 347 344 341 339 343 343 341 344 347 349 352 351 354 351 353 352 352 352 352 349 348 349 349 349 348 345 346 347 346 347
331 331 332 334 334 335 346 348 351 349 353 352 349 349 348 348 348 347 346 345 344 342 341 343 344 344 344 348 349 349 353 351 352 350 352 353 355 353 351 349 344 346 348 351 348 347 345 346 346
332 332 333 336 337 339 343 344 345 342 338 350 349 348 348 348 349 349 348 346 345 343 343 343 343 344 345 346 348 351 348 350 350 351 354 355 356 354 349 351 350 344 345 347 346 346 345 345 347
334 334 336 339 338 339 344 345 348 342 336 345 347 347 348 348 349 349 349 349 347 346 344 344 345 345 346 346 346 346 350 347 345 347 352 353 353 353 354 351 349 349 343 345 345 345 346 346 344
334 335 335 334 335 337 345 345 344 342 342 344 346 347 346 346 347 348 348 348 349 349 348 347 347 348 347 347 346 344 345 350 347 350 354 355 354 353 351 351 352 351 346 347 347 344 344 345 345
333 334 333 334 335 338 341 348 348 346 347 346 345 344 344 344 344 343 345 347 347 348 349 348 348 348 349 347 347 346 342 342 342 346 352 352 351 351 353 354 354 353 349 345 346 346 345 344 345
336 335 334 335 335 339 342 348 342 345 342 344 344 342 344 344 343 344 349 351 349 349 349 349 349 350 351 349 350 351 349 345 343 344 341 339 340 341 345 353 353 353 350 344 344 344 346 344 342
333 331 332 335 336 335 338 349 338 342 341 342 345 342 344 345 346 350 352 352 352 351 351 350 350 349 350 350 351 350 350 349 350 349 351 351 353 354 350 350 357 355 352 346 343 344 344 345 344
Wind_Speed
6 2 4 5 2 1 4 6 4 12 12 16 15 22 19 21 7 10 25 22 23 20 21 18 14 14 13 12 9 8 8 8 9 7 7 6 9 10 9 11 12 12 14 16 17 17 17 17 19
3 5 7 5 3 3 5 5 13 3 18 18 25 23 23 20 17 26 24 26 22 20 19 18 15 13 12 12 8 8 8 7 7 6 7 7 9 10 10 13 13 14 18 17 17 16 16 16 18
4 5 4 3 3 2 3 9 13 12 15 12 12 16 9 8 16 21 32 25 23 21 17 17 15 12 12 11 10 8 7 7 7 7 5 8 10 11 14 15 15 17 20 18 16 15 16 16 18
3 3 6 2 6 13 10 10 14 13 10 5 18 12 11 13 10 23 30 25 21 22 16 16 15 14 12 10 10 9 8 8 8 8 6 10 14 15 16 16 16 18 18 18 17 16 15 16 18
8 4 3 4 9 16 11 14 12 12 13 11 17 11 12 8 15 29 25 24 24 23 13 17 17 15 12 10 10 10 10 9 10 12 15 19 19 17 17 16 16 17 17 16 15 15 15 16 18
4 3 3 6 12 15 12 11 10 14 17 18 20 15 6 11 24 25 24 24 23 19 17 17 17 15 12 10 9 10 11 10 11 13 16 18 18 17 17 16 15 15 15 15 14 14 14 15 16
11 7 4 4 14 13 15 5 11 15 11 16 21 9 12 21 32 29 22 24 22 20 17 18 17 16 13 11 11 10 10 11 10 12 14 15 15 14 15 15 14 15 15 14 13 11 13 15 15
9 3 8 7 6 13 15 13 13 14 14 27 24 8 15 28 35 27 32 31 23 21 17 13 15 15 11 10 10 10 10 10 10 9 10 11 11 11 11 10 12 13 14 14 11 10 13 14 16
20 4 7 4 3 13 16 7 16 9 14 10 10 20 33 34 28 26 27 28 24 22 18 17 13 12 9 4 9 10 11 10 10 9 9 12 10 8 5 8 7 11 11 11 10 8 10 14 15
5 2 3 12 1 8 18 3 10 8 6 21 23 28 34 36 34 28 24 28 24 24 20 19 17 18 13 8 5 9 8 5 4 4 3 6 6 10 9 6 5 8 9 8 6 5 8 14 15
17 2 12 14 10 8 18 5 21 23 11 14 27 32 32 32 30 30 28 30 19 23 22 19 17 13 12 9 3 6 6 3 3 6 3 5 6 3 7 5 7 8 5 4 2 6 4 26 14
4 7 9 12 5 3 5 11 17 10 11 20 26 30 34 32 30 30 28 22 23 17 24 10 15 17 8 8 3 2 0 5 6 5 4 1 8 5 7 6 9 11 3 7 13 4 5 2 18
15 10 8 6 6 10 4 15 11 11 7 26 25 30 32 28 28 27 26 21 24 18 17 19 9 14 13 8 9 5 5 3 6 5 3 2 9 11 10 5 6 9 7 5 6 1 3 2 9
5 4 9 11 7 6 12 7 8 10 12 24 27 33 30 29 27 26 27 23 22 21 17 17 17 16 9 14 14 6 4 3 2 3 5 3 8 1 4 6 4 7 8 8 7 6 3 6 13
3 10 14 10 6 7 12 8 12 13 13 21 22 25 30 27 27 28 23 26 24 22 18 22 16 17 19 12 17 10 8 2 5 10 9 3 7 8 7 4 5 6 8 8 5 4 8 5 12
14 12 7 8 8 21 11 6 10 12 14 21 19 23 27 30 25 25 23 28 22 27 21 14 14 11 13 15 11 11 5 5 9 8 6 9 5 6 4 2 4 4 9 9 6 5 5 10 8
12 2 13 10 9 21 10 13 11 11 12 21 21 20 23 27 29 24 27 27 22 32 26 19 14 17 14 11 11 9 7 6 6 9 8 8 6 2 4 5 6 9 10 12 10 9 13 9 12
5 4 12 12 8 12 12 15 12 13 13 13 17 22 19 21 21 21 23 27 27 28 28 25 21 20 21 14 6 6 7 8 7 5 7 11 5 4 5 6 7 3 4 11 12 11 13 11 12
7 7 12 11 5 6 11 14 11 13 13 15 17 19 19 19 21 23 27 27 26 25 27 31 24 21 16 14 13 11 11 8 9 10 8 6 3 4 6 8 6 4 7 5 17 12 16 12 12
8 9 14 11 6 3 9 16 11 9 12 14 17 18 20 20 22 26 29 27 25 31 34 34 26 22 21 16 18 11 8 11 9 8 8 8 10 9 6 8 7 7 10 9 10 14 15 12 9
13 10 9 2 13 12 15 13 12 9 9 13 16 19 21 21 24 24 26 29 26 31 32 29 26 22 21 21 11 11 12 10 11 11 12 13 13 14 11 10 9 9 8 11 9 15 18 17 16
12 6 7 10 12 11 19 7 3 13 10 13 18 19 20 20 22 23 26 27 27 30 28 28 31 25 18 18 19 16 11 14 14 11 12 14 12 12 12 12 12 13 13 10 8 7 14 17 19
12 9 9 12 12 18 25 11 5 4 10 14 18 21 22 23 23 23 23 24 25 28 29 33 26 23 19 20 23 17 18 15 9 14 14 15 14 16 14 15 12 12 13 12 10 9 9 16 17
11 11 15 17 13 12 21 14 9 8 19 18 21 24 25 25 24 25 24 26 27 29 32 30 28 29 24 23 23 22 19 19 17 20 19 17 18 15 9 14 10 11 10 13 11 11 11 16 20
12 15 9 6 3 10 18 10 8 20 14 19 22 26 24 27 26 26 29 29 30 33 34 32 33 32 30 28 26 26 25 22 20 20 13 15 17 15 19 18 13 8 10 12 12 15 13 14 19
9 10 4 2 9 8 13 7 5 11 17 37 32 31 26 24 27 24 26 30 33 33 33 34 33 36 33 29 27 27 28 26 27 24 22 20 17 15 13 7 18 11 11 11 12 14 15 16 16
13 8 12 14 19 9 9 11 16 12 32 45 32 36 29 21 26 25 24 25 29 35 34 34 32 31 35 31 27 25 29 29 25 22 18 22 19 16 20 17 11 12 13 11 11 13 14 19 18
12 12 12 7 4 9 8 6 10 22 13 13 14 19 17 14 12 10 10 25 24 25 30 32 31 32 30 29 27 25 26 29 28 27 27 26 22 19 15 13 16 18 16 12 12 14 17 19 21
3 9 10 11 10 4 4 7 9 9 20 17 6 16 17 16 12 8 6 6 8 8 19 26 23 23 22 21 22 22 22 25 27 27 27 28 27 26 28 19 26 25 18 16 15 16 18 16 22
9 10 13 10 7 10 6 4 5 16 13 23 31 16 16 15 14 12 11 11 11 9 11 15 18 20 19 21 22 25 24 24 23 22 20 20 22 21 19 25 24 27 23 20 19 18 19 21 20
Wind_Direction
173 93 346 283 258 336 12 71 142 99 85 98 68 86 76 53 70 121 141 140 142 138 135 131 133 133 134 131 123 107 94 84 78 79 93 107 116 124 109 102 102 108 121 122 117 110 106 108 108
177 248 259 265 277 116 86 134 90 128 100 88 83 84 69 58 94 127 139 141 139 136 138 137 131 130 131 130 124 105 92 86 77 78 95 104 120 128 114 110 104 105 125 125 119 112 108 109 107
165 225 275 253 304 120 96 112 107 85 109 120 102 87 75 93 116 131 137 140 139 133 138 141 138 132 128 126 119 106 91 75 73 78 106 126 128 123 122 115 108 110 121 119 119 119 113 113 114
350 278 260 232 103 112 150 136 117 118 108 99 104 80 85 117 123 141 141 143 137 141 152 140 135 131 128 126 121 105 92 82 81 78 76 147 139 128 125 119 115 118 121 115 117 117 118 116 117
271 268 253 151 121 94 99 121 150 149 135 133 117 103 110 116 133 144 142 147 142 144 146 141 135 133 127 126 115 102 96 90 94 85 93 121 129 127 125 123 122 122 120 122 120 117 118 119 120
230 224 222 124 95 105 118 145 164 139 133 148 111 115 120 150 142 151 155 143 155 146 143 148 137 134 129 121 112 100 95 96 100 100 106 119 126 127 130 127 128 130 129 129 125 117 119 122 122
233 317 287 336 130 112 117 147 103 123 139 140 141 106 136 156 148 153 147 143 138 134 148 154 144 139 137 123 117 106 98 102 108 112 116 121 125 128 131 132 133 132 131 132 129 132 131 124 120
20 250 360 61 59 103 137 134 97 109 116 142 143 143 157 162 154 156 150 148 146 145 145 154 152 138 141 129 116 106 92 92 105 115 123 122 116 119 126 128 131 131 133 127 126 125 144 130 117
10 13 8 34 299 115 129 153 119 111 125 134 155 151 157 159 159 151 150 153 148 157 152 155 161 142 142 133 106 97 93 85 89 104 119 117 104 120 132 134 145 141 135 126 126 119 136 139 118
156 261 79 65 340 80 103 332 111 38 52 89 92 118 145 155 158 162 163 160 153 163 163 162 157 145 152 163 68 59 91 54 66 130 164 141 155 153 166 174 155 139 137 129 126 144 144 153 148
172 297 62 70 33 17 105 257 104 128 256 142 128 137 149 158 161 162 158 156 152 148 161 168 162 140 164 183 114 101 168 176 338 358 201 91 139 203 137 172 161 113 115 116 123 147 173 117 161
3 78 62 79 81 93 83 112 124 117 50 132 143 146 152 163 163 165 171 172 172 165 162 166 146 148 163 165 193 113 71 138 264 315 346 164 144 195 194 189 141 132 155 174 213 171 242 330 144
230 114 127 114 92 77 102 60 65 54 71 128 139 145 154 165 168 168 170 176 183 164 179 168 170 167 168 180 156 218 251 188 293 320 349 201 210 211 184 209 179 134 189 191 206 199 346 231 211
98 94 122 140 115 89 98 100 124 77 86 134 140 147 158 167 175 169 168 169 176 175 177 176 168 176 187 178 183 172 231 185 219 267 286 266 265 84 200 271 298 180 197 190 153 196 232 200 137
173 163 139 143 158 117 96 105 88 104 118 115 126 146 155 168 175 168 166 172 180 178 195 171 182 213 205 205 199 180 183 219 246 247 262 222 254 251 250 251 272 238 201 194 105 210 206 149 130
293 157 154 125 153 109 354 114 119 125 130 126 137 149 154 169 181 168 178 184 182 184 166 160 184 213 198 213 198 203 184 256 246 234 235 261 258 246 222 154 224 236 227 184 194 256 203 204 204
248 96 120 137 204 142 148 130 138 128 130 134 148 159 164 178 179 176 184 179 187 192 175 167 189 193 217 219 216 197 186 235 256 233 245 253 213 211 223 219 220 227 237 210 222 218 234 189 173
350 85 91 125 149 206 114 117 140 135 134 147 149 159 174 182 184 176 179 183 190 197 199 198 196 197 215 233 192 213 205 234 210 256 266 281 218 220 231 221 236 282 206 207 224 215 213 180 170
301 286 116 120 161 205 134 132 147 148 145 153 164 173 177 185 191 188 190 196 198 197 189 199 195 217 207 197 206 219 219 230 241 250 280 318 351 239 235 236 242 222 168 222 224 214 206 229 188
281 277 118 128 156 198 136 133 143 167 160 170 170 178 181 180 190 191 191 195 201 200 196 203 202 222 206 201 204 217 220 231 241 243 251 222 250 251 238 229 215 194 205 215 211 220 212 223 198
281 353 36 351 167 195 113 115 143 168 192 175 181 184 186 179 180 187 192 196 200 203 201 204 212 213 207 211 213 209 211 234 250 230 240 250 255 247 240 232 223 223 234 219 230 219 218 217 205
300 41 306 254 240 229 168 153 256 160 208 188 188 189 183 178 176 183 188 192 197 204 207 201 220 209 215 205 205 218 230 232 230 224 236 246 252 273 243 235 227 227 235 225 235 231 219 223 210
293 319 268 259 262 264 194 117 334 157 210 217 208 188 185 185 183 182 188 191 194 198 202 206 222 224 224 227 212 218 221 238 258 244 246 238 244 257 250 236 233 228 226 229 226 193 191 222 221
258 280 260 252 235 243 80 95 224 227 202 208 211 191 188 182 188 186 189 193 196 197 202 205 214 215 231 219 232 223 220 232 233 239 227 235 255 245 263 247 244 231 224 231 236 229 216 203 211
224 237 261 257 336 311 136 131 184 223 219 213 194 192 186 182 188 194 190 195 198 201 202 207 211 222 229 235 235 238 228 230 234 248 265 254 263 300 285 242 252 268 239 231 235 231 237 227 215
302 311 201 242 294 232 82 145 173 138 281 233 193 181 176 184 184 197 201 198 201 203 209 210 215 219 225 235 248 240 242 233 238 242 245 254 263 266 321 205 270 269 273 249 248 243 239 229 223
304 297 334 290 222 218 111 91 2 337 212 244 180 170 156 177 185 187 197 207 209 205 206 209 213 222 225 235 244 249 234 240 240 248 254 270 275 277 260 274 228 258 277 257 256 252 250 240 236
261 313 301 299 340 333 104 80 143 255 309 126 143 107 114 142 148 165 185 202 201 208 207 204 209 215 227 231 240 248 240 239 243 238 239 245 248 254 255 246 238 260 268 258 264 262 255 240 237
271 275 304 337 300 221 196 94 161 105 266 329 24 129 132 130 123 113 100 100 139 190 196 192 195 204 220 229 226 241 243 240 245 251 258 259 260 257 248 242 250 257 254 261 258 262 258 247 244
285 271 284 279 326 322 344 126 244 234 58 85 278 258 144 128 120 120 113 110 115 139 154 180 193 206 216 225 232 228 235 240 243 257 263 268 270 271 261 235 246 255 253 248 255 254 255 257 239